Location: Derby
(52.9213°N, 1.4761°W)
Time: 15:29:42
(UTC+01:00)

Vanguard 1 - Pass Details

Date: 28 May 2025
Orbit: 649 x 3822 km, 34.3° (Epoch: 14 June)

Event Time Altitude Azimuth Distance (km) Brightness Sun altitude
Rises 13:45:39 0° 194° (SSW) 7,790 15.1 57.6°
Reaches altitude 10° 13:53:13 10° 180° (S) 6,909 15.0 57.2°
Maximum altitude 14:07:27 21° 142° (SE) 5,793 14.5 56.3°
Drops below altitude 10° 14:19:48 10° 103° (ESE) 5,993 14.1 55.4°
Sets 14:25:28 0° 89° (E) 6,536 14.1 54.9°
